Date String (YYYY-MM-DD hh:mm:ss) UTC,Instrument flags,Ambient pressure (hPa),Sample flow (lpm),Bypass flow (lpm),Sample temperature (°C),Ambient temperature (°C),ASC tube jacket temperature (°C),LED temperature (°C),Box temperature (°C),Sample RH (%),Span deviation,Mass concentration (μg/m³),Mass concentration (μg/m³),Mass concentration (μg/m³)
DateTimeUTC,F1_M11,P_M11,Q1_M11,Q2_M11,T1_M11,T2_M11,T3_M11,T4_M11,T5_M11,U1_M11,ZSPAN_M11,X0_M11,X2_M11,X1_M11
2021-11-24 23:00:00,,0831.2,5.01,0.00,22.8,22.1,00.0,31.8,24.5,13.4,0000.0,0008.45,0002.02,0000.96
2021-11-24 23:01:00,,0831.2,5.00,0.00,22.8,22.1,00.0,31.8,24.5,13.4,0000.0,0008.27,0002.07,0000.97
2021-11-24 23:02:00,,0831.2,5.00,0.00,22.8,22.1,00.0,31.8,24.5,13.4,0000.0,0007.98,0002.08,0000.98
2021-11-24 23:03:00,,0831.2,5.00,0.00,22.8,22.1,00.0,31.8,24.5,13.4,0000.0,0008.42,0002.10,0000.98
2021-11-24 23:04:00,,0831.3,4.99,0.00,22.7,22.1,00.0,31.8,24.5,13.3,0000.0,0008.81,0002.15,0000.99
2021-11-24 23:05:00,,0831.3,5.01,0.00,22.7,22.0,00.0,31.8,24.5,13.3,0000.0,0008.82,0002.15,0000.99
2021-11-24 23:06:00,,0831.3,5.00,0.00,22.7,22.0,00.0,31.8,24.5,13.3,0000.0,0008.87,0002.19,0001.00
2021-11-24 23:07:00,,0831.3,5.00,0.00,22.7,22.0,00.0,31.8,24.5,13.3,0000.0,0009.23,0002.19,0001.02
2021-11-24 23:08:00,,0831.3,5.01,0.00,22.7,22.0,00.0,31.8,24.5,13.3,0000.0,0009.48,0002.19,0001.04
2021-11-24 23:09:00,,0831.4,5.01,0.00,22.7,22.0,00.0,31.8,24.4,13.2,0000.0,0009.37,0002.18,0001.05
2021-11-24 23:10:00,,0831.4,4.99,0.00,22.7,21.9,00.0,31.8,24.4,13.1,0000.0,0009.28,0002.16,0001.07
2021-11-24 23:11:00,,0831.4,5.01,0.00,22.7,21.8,00.0,31.8,24.4,13.6,0000.0,0009.43,0002.16,0001.11
2021-11-24 23:12:00,,0831.5,5.01,0.00,22.7,21.9,00.0,31.8,24.3,13.6,0000.0,0009.81,0002.17,0001.14
2021-11-24 23:13:00,,0831.5,5.00,0.00,22.6,21.8,00.0,31.8,24.3,13.8,0000.0,0010.62,0002.27,0001.18
2021-11-24 23:14:00,,0831.5,5.00,0.00,22.6,21.8,00.0,31.8,24.3,13.9,0000.0,0010.95,0002.38,0001.23
2021-11-24 23:15:00,,0831.4,5.00,0.00,22.6,21.8,00.0,31.7,24.2,14.0,0000.0,0010.85,0002.46,0001.30
2021-11-24 23:16:00,,0831.5,5.00,0.00,22.6,21.7,00.0,31.7,24.2,14.0,0000.0,0011.09,0002.55,0001.38
2021-11-24 23:17:00,,0831.5,4.99,0.00,22.5,21.7,00.0,31.7,24.1,14.1,0000.0,0011.63,0002.60,0001.45
2021-11-24 23:18:00,,0831.5,5.00,0.00,22.5,21.6,00.0,31.7,24.1,14.2,0000.0,0011.75,0002.74,0001.51
2021-11-24 23:19:00,,0831.5,5.00,0.00,22.4,21.6,00.0,31.7,24.0,14.2,0000.0,0011.26,0002.89,0001.58
2021-11-24 23:20:00,,0831.5,4.99,0.00,22.4,21.5,00.0,31.6,24.0,14.3,0000.0,0012.36,0003.09,0001.66
2021-11-24 23:21:00,,0831.6,5.01,0.00,22.3,21.4,00.0,31.6,24.0,14.4,0000.0,0013.08,0003.19,0001.74
2021-11-24 23:22:00,,0831.7,4.99,0.00,22.3,21.4,00.0,31.6,23.9,14.5,0000.0,0013.39,0003.26,0001.79
2021-11-24 23:23:00,,0831.8,5.00,0.00,22.3,21.3,00.0,31.6,23.9,14.7,0000.0,0013.14,0003.32,0001.86
2021-11-24 23:24:00,,0831.7,4.99,0.00,22.2,21.2,00.0,31.5,23.8,14.8,0000.0,0012.69,0003.35,0001.92
2021-11-24 23:25:00,,0831.7,5.00,0.00,22.2,21.3,00.0,31.5,23.8,14.9,0000.0,0013.00,0003.38,0001.96
2021-11-24 23:26:00,,0831.9,5.00,0.00,22.2,21.3,00.0,31.5,23.8,14.9,0000.0,0013.71,0003.39,0002.00
2021-11-24 23:27:00,,0832.0,5.02,0.00,22.2,21.3,00.0,31.5,23.8,14.9,0000.0,0015.07,0003.45,0002.04
2021-11-24 23:28:00,,0832.0,4.99,0.00,22.2,21.3,00.0,31.4,23.8,14.9,0000.0,0015.85,0003.49,0002.09
2021-11-24 23:29:00,,0832.1,5.00,0.00,22.2,21.3,00.0,31.4,23.8,15.0,0000.0,0016.59,0003.51,0002.12
2021-11-24 23:30:00,,0832.1,5.00,0.00,22.1,21.4,00.0,31.4,23.8,15.1,0000.0,0016.54,0003.55,0002.17
2021-11-24 23:31:00,,0832.1,4.99,0.00,22.1,21.4,00.0,31.4,23.8,15.1,0000.0,0016.90,0003.54,0002.20
2021-11-24 23:32:00,,0832.1,5.00,0.00,22.2,21.4,00.0,31.4,23.9,15.1,0000.0,0018.09,0003.52,0002.25
2021-11-24 23:33:00,,0832.2,5.00,0.00,22.2,21.4,00.0,31.3,23.8,15.2,0000.0,0018.94,0003.52,0002.29
2021-11-24 23:34:00,,0832.2,5.00,0.00,22.2,21.4,00.0,31.3,23.9,15.1,0000.0,0019.67,0003.51,0002.33
2021-11-24 23:35:00,,0832.2,5.00,0.00,22.2,21.4,00.0,31.3,23.9,15.2,0000.0,0020.15,0003.54,0002.35
2021-11-24 23:36:00,,0832.3,4.99,0.00,22.1,21.4,00.0,31.3,23.9,15.1,0000.0,0021.09,0003.56,0002.39
2021-11-24 23:37:00,,0832.3,5.00,0.00,22.1,21.4,00.0,31.3,23.9,15.2,0000.0,0021.31,0003.59,0002.42
2021-11-24 23:38:00,,0832.2,5.00,0.00,22.1,21.5,00.0,31.3,23.9,15.0,0000.0,0019.99,0003.59,0002.45
2021-11-24 23:39:00,,0832.3,5.00,0.00,22.1,21.4,00.0,31.3,23.9,14.6,0000.0,0018.86,0003.64,0002.47
2021-11-24 23:40:00,,0832.3,5.00,0.00,22.1,21.4,00.0,31.3,23.9,14.7,0000.0,0018.78,0003.67,0002.48
2021-11-24 23:41:00,,0832.2,5.00,0.00,22.1,21.4,00.0,31.3,23.9,14.2,0000.0,0020.16,0003.64,0002.49
2021-11-24 23:42:00,,0832.3,5.00,0.00,22.1,21.4,00.0,31.2,23.8,13.9,0000.0,0019.62,0003.65,0002.48
2021-11-24 23:43:00,,0832.3,5.01,0.00,22.1,21.4,00.0,31.2,23.8,13.9,0000.0,0017.61,0003.64,0002.48
2021-11-24 23:44:00,,0832.4,5.00,0.00,22.1,21.4,00.0,31.2,23.8,13.7,0000.0,0016.07,0003.63,0002.48
2021-11-24 23:45:00,,0832.4,5.00,0.00,22.1,21.4,00.0,31.2,23.8,13.7,0000.0,0015.77,0003.62,0002.49
2021-11-24 23:46:00,,0832.3,5.01,0.00,22.1,21.4,00.0,31.2,23.8,13.9,0000.0,0015.10,0003.57,0002.49
2021-11-24 23:47:00,,0832.4,4.99,0.00,22.1,21.4,00.0,31.2,23.8,14.0,0000.0,0013.34,0003.53,0002.49
2021-11-24 23:48:00,,0832.5,5.02,0.00,22.1,21.4,00.0,31.2,23.8,14.1,0000.0,0012.04,0003.50,0002.49
2021-11-24 23:49:00,,0832.5,4.99,0.00,22.0,21.4,00.0,31.2,23.7,14.3,0000.0,0012.55,0003.49,0002.51
2021-11-24 23:50:00,,0832.6,5.00,0.00,22.0,21.3,00.0,31.2,23.7,14.4,0000.0,0014.01,0003.49,0002.54
2021-11-24 23:51:00,,0832.6,5.00,0.00,22.0,21.3,00.0,31.2,23.7,14.6,0000.0,0014.02,0003.52,0002.59
2021-11-24 23:52:00,,0832.6,5.00,0.00,21.9,21.2,00.0,31.1,23.6,14.6,0000.0,0012.96,0003.59,0002.66
2021-11-24 23:53:00,,0832.7,5.00,0.00,21.9,21.1,00.0,31.1,23.6,14.7,0000.0,0013.77,0003.63,0002.73
2021-11-24 23:54:00,,0832.7,5.01,0.00,21.9,21.1,00.0,31.1,23.5,14.7,0000.0,0014.89,0003.71,0002.80
2021-11-24 23:55:00,,0832.7,5.00,0.00,21.9,21.1,00.0,31.1,23.5,14.7,0000.0,0015.23,0003.77,0002.86
2021-11-24 23:56:00,,0832.7,5.01,0.00,21.8,21.1,00.0,31.1,23.5,14.7,0000.0,0015.12,0003.85,0002.92
2021-11-24 23:57:00,,0832.8,4.99,0.00,21.8,21.0,00.0,31.0,23.5,14.7,0000.0,0015.43,0003.93,0003.00
2021-11-24 23:58:00,,0832.8,5.01,0.00,21.8,20.9,00.0,31.0,23.4,14.7,0000.0,0015.60,0004.01,0003.08
2021-11-24 23:59:00,,0832.8,4.98,0.00,21.8,20.9,00.0,31.0,23.4,14.7,0000.0,0015.67,0004.07,0003.14
